Location: Buffign�court
(47.8126°N, 6.0176°E)
Time: 19:34:11
(UTC+00:00)

Cosmos 1315 Rocket - Pass Details

Date: 16 June 2021
Orbit: 528 x 568 km, 81.2° (Epoch: 31 July)

Event Time Altitude Azimuth Distance (km) Brightness Sun altitude
Rises 20:17:53 0° 347° (NNW) 2,783 7.5 -6.0°
Reaches altitude 10° 20:20:04 10° 347° (NNW) 1,881 6.6 -6.3°
Maximum altitude 20:24:14 83° 259° (W) 579 3.0 -6.7°
Drops below altitude 10° 20:28:21 10° 173° (S) 1,857 5.0 -7.2°
Enters shadow 20:29:30 - 172° (S) 2,326 5.5 -7.3°
